"Pseudo-MPEC" for ZTF1074

Created 2025 Oct 18 0:35:22 UT using Find_Orb

Click here for an explanation of pseudo-MPECs

 
 Astrometry: 
     ZTF1074  C2025 10 12.42121004 03 42.667+29 44 13.77   ~AFG5 17.79RUNEOCPI41
     ZTF1074  C2025 10 12.42155804 03 39.512+29 44 07.39   ~AFG5 17.79RUNEOCPI41
     ZTF1074  C2025 10 12.49354003 52 31.238+29 18 33.75   ~AEDK 18.68gUNEOCPI41
     ZTF1074  C2025 10 12.49388703 52 28.071+29 18 25.51   ~AEDK 18.68gUNEOCPI41
     ZTF1074  C2025 10 13.21372301 43 32.075+18 21 02.53   ~AECo 16.29RUNEOCPI41
     ZTF1074  C2025 10 13.21407001 43 26.601+18 20 31.48   ~AECo 16.29RUNEOCPI41
     ZTF1074*tC2025 10 13.29012901 22 06.122+16 11 24.75   ~ADF5 16.33RUNEOCPI41
     ZTF1074 tC2025 10 13.29047601 22 00.094+16 10 46.78   ~ADF5 16.33RUNEOCPI41
     ZTF1074 tC2025 10 13.29059901 21 57.961+16 10 33.13   ~ADF5 16.14RUNEOCPI41
     ZTF1074 tC2025 10 13.29094601 21 51.930+16 09 54.58   ~ADF5 16.14RUNEOCPI41
     ZTF1074 tC2025 10 13.32797201 11 03.459+14 59 08.37   ~ADF5 16.42RUNEOCPI41
     ZTF1074 tC2025 10 13.32831901 10 57.301+14 58 27.69   ~ADF5 16.42RUNEOCPI41

Station data:
(I41) Palomar Mountain--ZTF  (N33.357336 W116.859780)  US/California.
   Observers B. T. Bolin, Z. T. F. Collaboration. Measurers B. T. Bolin,
   Z.-Y. Lin, F. J. Masci. 1.2-m f/2.4 Schmidt.

Orbital elements:  ZTF1074
   Perigee 2025 Oct 13.558249 +/- 9.03e-5 TT = 13:23:52.7 (JD 2460962.058249)
Epoch 2025 Oct 13.0 TT = JDT 2460961.5                           AutoNEOCP
q219463.7381 +/- 68                 (J2000 equator)
H   30.03 G 0.15                    Peri.  165.542463 +/- 0.008
                                    Node   170.855620 +/- 0.00047
e   4.79506811 +/- 0.00455          Incl.  148.637511 +/- 0.00011
From 12 observations 2025 Oct. 12-13 (21.8 hr); mean residual 0".59
Residuals in arcseconds: 
251012 I41  .11-  .14+    251013 I41  1.4-  .60-    251013 I41  .19+  .28-    
251012 I41  .50-  .37-    251013 I41  .49+  .65+    251013 I41  .15+  .43-    
251012 I41  .48-  .19-    251013 I41  .16+  .63-    251013 I41  .54+  .56+    
251012 I41  1.3+  .54+    251013 I41  .14+  .24-    251013 I41  .12-  1.0+    

Ephemerides (geocentric):
Date (UTC) HH   RA             Dec           delta  r     elong  mag " sig PA
---- --------  ------------   ------------  ------ ------ -----  --- --------
2025 10 18 01  18 38 30.498   -29 59 40.69  .00746 0.9944  74.0 23.3 43.1  81
2025 10 18 02  18 37 58.582   -30 00 50.74  .00752 0.9943  73.8 23.3 43.2  81
2025 10 18 03  18 37 27.195   -30 01 59.13  .00759 0.9943  73.6 23.4 43.3  81
2025 10 18 04  18 36 56.325   -30 03 05.90  .00765 0.9943  73.5 23.4 43.4  81
2025 10 18 05  18 36 25.958   -30 04 11.11  .00772 0.9942  73.3 23.4 43.5  81
2025 10 18 06  18 35 56.083   -30 05 14.81  .00778 0.9942  73.2 23.4 43.6  81
2025 10 18 07  18 35 26.687   -30 06 17.05  .00785 0.9941  73.0 23.5 43.7  81
2025 10 18 08  18 34 57.759   -30 07 17.86  .00791 0.9941  72.9 23.5 43.8  81
2025 10 18 09  18 34 29.288   -30 08 17.30  .00798 0.9940  72.7 23.5 43.9  81
2025 10 18 10  18 34 01.263   -30 09 15.41  .00804 0.9940  72.6 23.5 44.0  81
2025 10 18 11  18 33 33.674   -30 10 12.22  .00810 0.9939  72.5 23.6 44.1  81
2025 10 18 12  18 33 06.509   -30 11 07.78  .00817 0.9939  72.3 23.6 44.2  81
2025 10 18 13  18 32 39.760   -30 12 02.12  .00823 0.9938  72.2 23.6 44.3  82
2025 10 18 14  18 32 13.417   -30 12 55.28  .00830 0.9938  72.1 23.6 44.3  82
2025 10 18 15  18 31 47.471   -30 13 47.29  .00836 0.9937  71.9 23.7 44.4  82
2025 10 18 16  18 31 21.912   -30 14 38.19  .00843 0.9937  71.8 23.7 44.5  82
2025 10 18 17  18 30 56.733   -30 15 28.00  .00849 0.9936  71.7 23.7 44.6  82
2025 10 18 18  18 30 31.923   -30 16 16.77  .00856 0.9936  71.5 23.7 44.7  82
2025 10 18 19  18 30 07.476   -30 17 04.52  .00862 0.9935  71.4 23.8 44.8  82
2025 10 18 20  18 29 43.383   -30 17 51.27  .00868 0.9935  71.3 23.8 44.8  82
2025 10 18 21  18 29 19.636   -30 18 37.06  .00875 0.9934  71.1 23.8 44.9  82
2025 10 18 22  18 28 56.228   -30 19 21.91  .00881 0.9934  71.0 23.8 45.0  82
2025 10 18 23  18 28 33.152   -30 20 05.86  .00888 0.9933  70.9 23.8 45.1  82
2025 10 19 00  18 28 10.400   -30 20 48.91  .00894 0.9933  70.8 23.9 45.2  82
2025 10 19 01  18 27 47.965   -30 21 31.11  .00901 0.9932  70.6 23.9 45.2  82
2025 10 19 02  18 27 25.841   -30 22 12.46  .00907 0.9932  70.5 23.9 45.3  82
2025 10 19 03  18 27 04.021   -30 22 53.00  .00914 0.9931  70.4 23.9 45.4  82
2025 10 19 04  18 26 42.499   -30 23 32.75  .00920 0.9931  70.3 24.0 45.5  82
2025 10 19 05  18 26 21.268   -30 24 11.72  .00927 0.9930  70.2 24.0 45.5  82
2025 10 19 06  18 26 00.323   -30 24 49.93  .00933 0.9930  70.1 24.0 45.6  82
2025 10 19 07  18 25 39.658   -30 25 27.42  .00939 0.9929  69.9 24.0 45.7  82
2025 10 19 08  18 25 19.267   -30 26 04.19  .00946 0.9929  69.8 24.0 45.7  82
2025 10 19 09  18 24 59.143   -30 26 40.26  .00952 0.9928  69.7 24.1 45.8  82
2025 10 19 10  18 24 39.283   -30 27 15.65  .00959 0.9928  69.6 24.1 45.9  83
2025 10 19 11  18 24 19.681   -30 27 50.39  .00965 0.9927  69.5 24.1 45.9  83
2025 10 19 12  18 24 00.331   -30 28 24.47  .00972 0.9926  69.4 24.1 46.0  83
2025 10 19 13  18 23 41.228   -30 28 57.93  .00978 0.9926  69.3 24.1 46.1  83
2025 10 19 14  18 23 22.368   -30 29 30.78  .00985 0.9925  69.2 24.2 46.1  83
2025 10 19 15  18 23 03.746   -30 30 03.03  .00991 0.9925  69.1 24.2 46.2  83
2025 10 19 16  18 22 45.357   -30 30 34.69  .00997 0.9924  68.9 24.2 46.3  83
2025 10 19 17  18 22 27.197   -30 31 05.79  .01004 0.9924  68.8 24.2 46.3  83
2025 10 19 18  18 22 09.261   -30 31 36.32  .01010 0.9923  68.7 24.2 46.4  83
2025 10 19 19  18 21 51.545   -30 32 06.32  .01017 0.9923  68.6 24.3 46.5  83
2025 10 19 20  18 21 34.045   -30 32 35.79  .01023 0.9922  68.5 24.3 46.5  83
2025 10 19 21  18 21 16.756   -30 33 04.74  .01030 0.9922  68.4 24.3 46.6  83
2025 10 19 22  18 20 59.675   -30 33 33.19  .01036 0.9921  68.3 24.3 46.6  83
2025 10 19 23  18 20 42.798   -30 34 01.14  .01043 0.9921  68.2 24.3 46.7  83
2025 10 20 00  18 20 26.121   -30 34 28.62  .01049 0.9920  68.1 24.4 46.8  83